CFG764J LROP-EDDL

Flight info

Callsign CFG764J
Flight time N/A
Altitude 38000
Route BUKEL DCT EDETA DCT ANAVU DCT JIBOU DCT SAT DCT PITOK DCT SLC DCT ROMIS DCT HDO DCT KOSIX L986 MAG Z92 ABGUS/N0380F240 Z92 WRB P12 ESADU Z858 DOMUX DOMUX1A
Aircraft A21N/M-SDE2E3FGHIRWXY/LB1

Departure

Time N/A
Airport Bucharest Henri Coandă International Airport (LROP)

Arrival

Time 2026-04-30 19:49
Airport Düsseldorf Airport (EDDL)
Time Latitude Longitude Altitude Speed Heading
2026-04-30 19:22 51.65559 9.92492 38477 ft 458 kts 259°
2026-04-30 19:23 51.63304 9.77555 38464 ft 457 kts 258°
2026-04-30 19:24 51.60540 9.62835 38450 ft 458 kts 255°
2026-04-30 19:24 51.58667 9.53122 37364 ft 456 kts 255°
2026-04-30 19:25 51.55835 9.38411 34760 ft 461 kts 254°
2026-04-30 19:26 51.53921 9.28552 32860 ft 463 kts 254°
2026-04-30 19:26 51.52006 9.18748 31435 ft 456 kts 254°
2026-04-30 19:26 51.51059 9.13913 30779 ft 451 kts 254°
2026-04-30 19:27 51.48816 9.04608 29324 ft 443 kts 248°
2026-04-30 19:27 51.46414 8.95661 27895 ft 435 kts 247°
2026-04-30 19:28 51.45216 8.91218 27194 ft 432 kts 247°
2026-04-30 19:28 51.42837 8.82445 25883 ft 425 kts 247°
2026-04-30 19:29 51.41090 8.73475 25432 ft 422 kts 265°
2026-04-30 19:29 51.41009 8.68788 25424 ft 421 kts 272°
2026-04-30 19:30 51.41215 8.54755 25432 ft 420 kts 272°
2026-04-30 19:30 51.41320 8.45438 25430 ft 420 kts 272°
2026-04-30 19:31 51.41430 8.36078 25430 ft 420 kts 272°
2026-04-30 19:31 51.41476 8.31398 25423 ft 420 kts 272°
2026-04-30 19:31 51.41571 8.22058 25418 ft 419 kts 272°
2026-04-30 19:32 51.41614 8.17413 24820 ft 418 kts 271°
2026-04-30 19:32 51.41647 8.12723 23770 ft 425 kts 271°
2026-04-30 19:32 51.41677 8.07920 22674 ft 430 kts 271°
2026-04-30 19:32 51.41707 8.03144 21835 ft 428 kts 271°
2026-04-30 19:33 51.41742 7.98392 21111 ft 424 kts 271°
2026-04-30 19:33 51.41774 7.93689 20374 ft 421 kts 271°
2026-04-30 19:33 51.41801 7.89058 19683 ft 418 kts 271°
2026-04-30 19:33 51.41828 7.84413 18982 ft 415 kts 271°
2026-04-30 19:34 51.41855 7.79806 18292 ft 412 kts 271°
2026-04-30 19:34 51.41878 7.75242 17581 ft 408 kts 270°
2026-04-30 19:34 51.41884 7.66244 16261 ft 400 kts 270°
2026-04-30 19:35 51.41896 7.61801 15635 ft 396 kts 270°
2026-04-30 19:35 51.41910 7.57422 14999 ft 393 kts 270°
2026-04-30 19:35 51.41809 7.53067 14402 ft 388 kts 261°
2026-04-30 19:35 51.41183 7.48900 13745 ft 384 kts 253°
2026-04-30 19:36 51.40458 7.44808 13139 ft 379 kts 252°
2026-04-30 19:36 51.39743 7.40754 12545 ft 374 kts 252°
2026-04-30 19:36 51.38376 7.32898 11481 ft 362 kts 252°
2026-04-30 19:37 51.37710 7.29047 11073 ft 353 kts 252°
2026-04-30 19:37 51.37067 7.25319 10820 ft 340 kts 252°
2026-04-30 19:37 51.36456 7.21752 10624 ft 325 kts 252°
2026-04-30 19:37 51.35862 7.18374 10434 ft 312 kts 249°
2026-04-30 19:38 51.35045 7.15173 10149 ft 302 kts 243°
2026-04-30 19:38 51.34200 7.12209 9937 ft 291 kts 242°
2026-04-30 19:38 51.33371 7.09331 9757 ft 279 kts 242°
2026-04-30 19:38 51.32568 7.06541 9460 ft 274 kts 241°
2026-04-30 19:39 51.31697 7.03857 9088 ft 270 kts 236°
2026-04-30 19:39 51.30724 7.01307 8708 ft 268 kts 234°
2026-04-30 19:39 51.29741 6.98781 8332 ft 266 kts 234°
2026-04-30 19:39 51.28763 6.96265 7959 ft 265 kts 234°
2026-04-30 19:40 51.27797 6.93767 7586 ft 264 kts 234°
2026-04-30 19:40 51.26840 6.91284 7217 ft 262 kts 234°
2026-04-30 19:40 51.25890 6.88802 6879 ft 260 kts 234°
2026-04-30 19:40 51.24952 6.86343 6528 ft 259 kts 234°
2026-04-30 19:41 51.24034 6.83930 6174 ft 256 kts 234°
2026-04-30 19:41 51.23113 6.81505 5828 ft 254 kts 234°
2026-04-30 19:41 51.22200 6.79098 5479 ft 253 kts 234°
2026-04-30 19:41 51.21295 6.76710 5129 ft 251 kts 234°
2026-04-30 19:42 51.20396 6.74331 4765 ft 249 kts 234°
2026-04-30 19:42 51.19506 6.71964 4409 ft 248 kts 234°
2026-04-30 19:42 51.18623 6.69606 4056 ft 247 kts 234°
2026-04-30 19:42 51.17751 6.67254 3701 ft 247 kts 235°
2026-04-30 19:43 51.17202 6.64644 3312 ft 253 kts 260°
2026-04-30 19:43 51.17209 6.61826 3020 ft 255 kts 270°
2026-04-30 19:43 51.17314 6.58997 2967 ft 255 kts 270°
2026-04-30 19:44 51.18701 6.54295 2948 ft 229 kts 334°
2026-04-30 19:44 51.20151 6.53772 2958 ft 200 kts 14°
2026-04-30 19:44 51.21347 6.54539 2967 ft 183 kts 46°
2026-04-30 19:44 51.22114 6.56030 3005 ft 161 kts 71°
2026-04-30 19:45 51.22340 6.57580 2998 ft 127 kts 92°
2026-04-30 19:45 51.22274 6.58880 2948 ft 113 kts 104°
2026-04-30 19:45 51.22145 6.60086 2808 ft 109 kts 101°
2026-04-30 19:45 51.22171 6.61305 2659 ft 112 kts 88°
2026-04-30 19:46 51.22410 6.62506 2477 ft 116 kts 76°
2026-04-30 19:46 51.22748 6.63684 2253 ft 118 kts 69°
2026-04-30 19:46 51.23151 6.64789 2094 ft 116 kts 68°
2026-04-30 19:46 51.23570 6.65886 1847 ft 116 kts 64°
2026-04-30 19:47 51.24040 6.66943 1622 ft 117 kts 62°
2026-04-30 19:47 51.24374 6.67642 1450 ft 117 kts 60°
2026-04-30 19:47 51.24980 6.69034 1220 ft 118 kts 57°
2026-04-30 19:47 51.25535 6.70012 977 ft 118 kts 56°
2026-04-30 19:48 51.26022 6.71064 854 ft 118 kts 60°
2026-04-30 19:48 51.26499 6.72131 649 ft 119 kts 55°
2026-04-30 19:48 51.27001 6.73166 480 ft 119 kts 54°
2026-04-30 19:48 51.27503 6.74235 343 ft 120 kts 55°
2026-04-30 19:49 51.28000 6.75277 198 ft 117 kts 56°
2026-04-30 19:49 51.28639 6.76630 144 ft 48 kts 54°
2026-04-30 19:49 51.28821 6.77010 145 ft 27 kts 52°
2026-04-30 19:50 51.28941 6.77258 144 ft 29 kts 52°
2026-04-30 19:50 51.29027 6.77487 147 ft 0 kts 79°
2026-04-30 19:50 51.29028 6.77509 148 ft 4 kts 87°
2026-04-30 19:50 51.29027 6.77546 148 ft 3 kts 98°
2026-04-30 19:51 51.29014 6.77564 148 ft 7 kts 149°
2026-04-30 19:51 51.28960 6.77623 149 ft 11 kts 142°
2026-04-30 19:51 51.28935 6.77653 148 ft 12 kts 145°
2026-04-30 19:51 51.28903 6.77680 147 ft 0 kts 220°
2026-04-30 19:52 51.28899 6.77666 146 ft 4 kts 243°
2026-04-30 19:52 51.28880 6.77597 146 ft 10 kts 238°
2026-04-30 19:52 51.28829 6.77490 144 ft 15 kts 232°
2026-04-30 19:52 51.28756 6.77335 146 ft 19 kts 232°
2026-04-30 19:53 51.28670 6.77154 147 ft 22 kts 233°
2026-04-30 19:53 51.28574 6.76953 145 ft 24 kts 232°
2026-04-30 19:53 51.28470 6.76736 142 ft 25 kts 232°
2026-04-30 19:53 51.28360 6.76507 139 ft 27 kts 232°
2026-04-30 19:54 51.28260 6.76293 138 ft 23 kts 233°
2026-04-30 19:54 51.28199 6.76163 139 ft 1 kts 232°
2026-04-30 19:54 51.28185 6.76135 139 ft 6 kts 232°
2026-04-30 19:54 51.28143 6.76053 139 ft 13 kts 218°
2026-04-30 19:55 51.28033 6.76050 139 ft 19 kts 165°
2026-04-30 19:55 51.27997 6.76044 139 ft 3 kts 185°
2026-04-30 19:55 51.27955 6.76043 138 ft 9 kts 166°
2026-04-30 19:55 51.27943 6.76161 137 ft 14 kts 90°
2026-04-30 19:56 51.27943 6.76176 136 ft 0 kts 90°
2026-04-30 19:56 51.27943 6.76177 136 ft 0 kts 90°